• In Portugal
  • List of Countries
  • For 7 days
  • Water Temperature
  • Satellite Maps
  • Weather Map
  • Weather Widgets
  • user-avatar
    Login

    Hourly Weather Gostkow

    Today, 19 September, Wednesday

    Time Temperature Precipitation Wind Pressure Humidity
    00:00 +17°C° 0 mm 4 mps 718 mmHg 66%
    01:00 +17°C° 0 mm 3 mps 718 mmHg 65%
    02:00 +16°C° 0 mm 3 mps 718 mmHg 65%
    03:00 +16°C° 0 mm 3 mps 718 mmHg 65%
    04:00 +16°C° 0 mm 3 mps 718 mmHg 66%
    05:00 +16°C° 0 mm 3 mps 718 mmHg 66%
    06:00 +17°C° 0 mm 3 mps 718 mmHg 66%
    07:00 +17°C° 0 mm 2 mps 719 mmHg 65%
    08:00 +19°C° 0 mm 2 mps 719 mmHg 60%
    09:00 +21°C° 0 mm 2 mps 720 mmHg 56%
    10:00 +24°C° 0 mm 2 mps 720 mmHg 52%
    11:00 +25°C° 0 mm 2 mps 720 mmHg 50%
    12:00 +26°C° 0 mm 2 mps 720 mmHg 48%
    13:00 +27°C° 0 mm 2 mps 720 mmHg 46%
    14:00 +27°C° 0 mm 2 mps 720 mmHg 46%
    15:00 +27°C° 0 mm 2 mps 720 mmHg 47%
    16:00 +27°C° 0 mm 1 mps 720 mmHg 47%
    17:00 +25°C° 0 mm 1 mps 720 mmHg 54%
    18:00 +23°C° 0 mm 1 mps 720 mmHg 60%
    19:00 +21°C° 0 mm 1 mps 720 mmHg 67%
    20:00 +20°C° 0 mm 1 mps 720 mmHg 69%
    21:00 +19°C° 0 mm 1 mps 720 mmHg 71%
    22:00 +18°C° 0 mm 2 mps 720 mmHg 73%
    23:00 +18°C° 0 mm 2 mps 720 mmHg 74%

    Tomorrow, 20 September, Thursday

    Time Temperature Precipitation Wind Pressure Humidity
    00:00 +17°C° 0 mm 2 mps 720 mmHg 75%
    01:00 +17°C° 0 mm 2 mps 720 mmHg 76%
    02:00 +17°C° 0 mm 2 mps 720 mmHg 77%
    03:00 +17°C° 0 mm 2 mps 720 mmHg 78%
    04:00 +16°C° 0 mm 2 mps 720 mmHg 78%
    05:00 +17°C° 0 mm 2 mps 720 mmHg 77%
    06:00 +18°C° 0 mm 1 mps 720 mmHg 76%
    07:00 +19°C° 0 mm 1 mps 720 mmHg 74%
    08:00 +21°C° 0 mm 1 mps 720 mmHg 67%
    09:00 +23°C° 0 mm 1 mps 721 mmHg 60%
    10:00 +25°C° 0 mm 1 mps 721 mmHg 53%
    11:00 +26°C° 0 mm 1 mps 721 mmHg 49%
    12:00 +27°C° 0 mm 1 mps 721 mmHg 46%
    13:00 +28°C° 0 mm 1 mps 721 mmHg 42%
    14:00 +28°C° 0 mm 1 mps 720 mmHg 43%
    15:00 +27°C° 0 mm 1 mps 720 mmHg 43%
    16:00 +27°C° 0 mm 1 mps 720 mmHg 43%
    17:00 +25°C° 0 mm 1 mps 719 mmHg 49%
    18:00 +23°C° 0 mm 1 mps 719 mmHg 55%
    19:00 +21°C° 0 mm 1 mps 719 mmHg 60%
    20:00 +19°C° 0 mm 2 mps 719 mmHg 62%
    21:00 +19°C° 0 mm 2 mps 719 mmHg 63%
    22:00 +18°C° 0 mm 2 mps 718 mmHg 65%
    23:00 +18°C° 0 mm 2 mps 718 mmHg 67%

    Day after tomorrow, 21 September, Friday

    Time Temperature Precipitation Wind Pressure Humidity
    00:00 +17°C° 0 mm 2 mps 718 mmHg 69%
    01:00 +17°C° 0 mm 2 mps 717 mmHg 71%
    02:00 +17°C° 0 mm 2 mps 717 mmHg 74%
    03:00 +16°C° 0 mm 2 mps 717 mmHg 76%
    04:00 +16°C° 0 mm 3 mps 716 mmHg 78%
    05:00 +17°C° 0 mm 3 mps 716 mmHg 76%
    06:00 +17°C° 0 mm 3 mps 716 mmHg 74%
    07:00 +17°C° 0 mm 3 mps 716 mmHg 72%
    08:00 +19°C° 0 mm 4 mps 716 mmHg 65%
    09:00 +21°C° 0 mm 5 mps 716 mmHg 57%
    10:00 +23°C° 0 mm 6 mps 716 mmHg 49%
    11:00 +24°C° 0 mm 6 mps 715 mmHg 46%
    12:00 +26°C° 0 mm 6 mps 715 mmHg 44%
    13:00 +27°C° 0 mm 6 mps 715 mmHg 41%
    14:00 +27°C° 0 mm 6 mps 714 mmHg 42%
    15:00 +27°C° 0 mm 5 mps 714 mmHg 44%
    16:00 +26°C° 0 mm 5 mps 714 mmHg 45%
    17:00 +25°C° 0 mm 5 mps 714 mmHg 49%
    18:00 +22°C° 0 mm 4 mps 714 mmHg 53%
    19:00 +21°C° 0 mm 4 mps 714 mmHg 58%
    20:00 +20°C° 0.1 mm 4 mps 714 mmHg 65%
    21:00 +18°C° 0.1 mm 4 mps 715 mmHg 72%
    22:00 +17°C° 0.1 mm 4 mps 716 mmHg 79%
    23:00 +15°C° 0.2 mm 4 mps 716 mmHg 79%

    22 September, Saturday

    Time Temperature Precipitation Wind Pressure Humidity
    00:00 +14°C° 0.2 mm 4 mps 716 mmHg 80%
    01:00 +13°C° 0.2 mm 4 mps 717 mmHg 80%
    02:00 +12°C° 1 mm 3 mps 717 mmHg 82%
    03:00 +11°C° 1 mm 3 mps 717 mmHg 83%
    04:00 +10°C° 1 mm 2 mps 718 mmHg 84%
    05:00 +10°C° 0.2 mm 3 mps 718 mmHg 83%
    06:00 +10°C° 0.2 mm 3 mps 718 mmHg 83%
    07:00 +10°C° 0.2 mm 3 mps 719 mmHg 82%
    08:00 +10°C° 0.2 mm 4 mps 719 mmHg 77%
    09:00 +11°C° 0.2 mm 4 mps 719 mmHg 73%
    10:00 +10°C° 0.2 mm 5 mps 719 mmHg 68%
    11:00 +12°C° 0.1 mm 5 mps 719 mmHg 62%
    12:00 +13°C° 0.1 mm 5 mps 719 mmHg 56%
    13:00 +14°C° 0.1 mm 5 mps 719 mmHg 49%
    14:00 +14°C° 0 mm 5 mps 719 mmHg 48%
    15:00 +14°C° 0 mm 5 mps 718 mmHg 47%
    16:00 +14°C° 0 mm 5 mps 718 mmHg 46%
    17:00 +12°C° 0 mm 4 mps 718 mmHg 51%
    18:00 +11°C° 0 mm 3 mps 718 mmHg 55%
    19:00 +9°C° 0 mm 2 mps 718 mmHg 60%
    20:00 +9°C° 0 mm 2 mps 719 mmHg 61%
    21:00 +8°C° 0 mm 2 mps 719 mmHg 63%
    22:00 +8°C° 0 mm 2 mps 719 mmHg 64%
    23:00 +7°C° 0 mm 2 mps 719 mmHg 65%

    23 September, Sunday

    Time Temperature Precipitation Wind Pressure Humidity
    00:00 +7°C° 0 mm 2 mps 719 mmHg 67%
    01:00 +7°C° 0 mm 2 mps 719 mmHg 68%
    02:00 +6°C° 0 mm 2 mps 719 mmHg 70%
    03:00 +6°C° 0 mm 2 mps 719 mmHg 72%
    04:00 +6°C° 0 mm 2 mps 719 mmHg 74%
    05:00 +6°C° 0 mm 2 mps 719 mmHg 73%
    06:00 +7°C° 0 mm 2 mps 719 mmHg 73%
    07:00 +7°C° 0 mm 2 mps 719 mmHg 72%
    08:00 +9°C° 0 mm 2 mps 719 mmHg 64%
    09:00 +11°C° 0 mm 3 mps 719 mmHg 56%
    10:00 +13°C° 0 mm 3 mps 718 mmHg 48%
    11:00 +14°C° 0 mm 4 mps 717 mmHg 46%
    12:00 +15°C° 0 mm 5 mps 716 mmHg 43%
    13:00 +16°C° 0 mm 5 mps 716 mmHg 41%
    14:00 +16°C° 0 mm 6 mps 714 mmHg 44%
    15:00 +16°C° 0 mm 6 mps 713 mmHg 47%
    16:00 +15°C° 0 mm 6 mps 712 mmHg 49%
    17:00 +15°C° 0 mm 6 mps 710 mmHg 52%
    18:00 +14°C° 0 mm 7 mps 709 mmHg 55%
    19:00 +14°C° 0 mm 7 mps 708 mmHg 58%
    20:00 +14°C° 0.1 mm 7 mps 707 mmHg 59%
    21:00 +14°C° 0.1 mm 7 mps 706 mmHg 60%
    22:00 +14°C° 0.1 mm 7 mps 705 mmHg 61%
    23:00 +14°C° 0.4 mm 7 mps 706 mmHg 66%

    24 September, Monday

    Time Temperature Precipitation Wind Pressure Humidity
    00:00 +14°C° 0.4 mm 6 mps 706 mmHg 70%
    01:00 +13°C° 0.4 mm 6 mps 706 mmHg 75%
    02:00 +13°C° 0.3 mm 6 mps 706 mmHg 76%
    03:00 +11°C° 0.3 mm 6 mps 706 mmHg 77%
    04:00 +10°C° 0.3 mm 6 mps 706 mmHg 78%
    05:00 +9°C° 0.2 mm 6 mps 706 mmHg 78%
    06:00 +9°C° 0.2 mm 6 mps 705 mmHg 78%
    07:00 +8°C° 0.2 mm 6 mps 705 mmHg 78%
    08:00 +8°C° 0.4 mm 7 mps 705 mmHg 76%
    09:00 +9°C° 0.4 mm 7 mps 705 mmHg 75%
    10:00 +9°C° 0.4 mm 8 mps 705 mmHg 74%
    11:00 +10°C° 0 mm 8 mps 705 mmHg 71%
    12:00 +11°C° 0 mm 8 mps 705 mmHg 69%
    13:00 +12°C° 0 mm 8 mps 705 mmHg 66%
    14:00 +11°C° 0.1 mm 8 mps 706 mmHg 70%
    15:00 +10°C° 0.1 mm 8 mps 706 mmHg 73%
    16:00 +8°C° 0.1 mm 9 mps 707 mmHg 76%
    17:00 +9°C° 0.1 mm 8 mps 708 mmHg 75%
    18:00 +7°C° 0.1 mm 8 mps 709 mmHg 75%
    19:00 +6°C° 0.1 mm 7 mps 710 mmHg 74%
    20:00 +6°C° 0 mm 7 mps 711 mmHg 73%
    21:00 +5°C° 0 mm 7 mps 712 mmHg 72%
    22:00 +5°C° 0 mm 8 mps 713 mmHg 72%
    23:00 +5°C° 0 mm 8 mps 713 mmHg 72%
    Show more